Durant, OK

4:04 AM CST on December 07, 2019 (GMT -0600)
Eaker

Weather History for KDUA - October, 2019

Change the Weather History Date:

Tuesday, October 29, 2019

  Actual Average (KMLC) Record (KMLC)
Temperature  
Mean Temperature 44 °F -  
Max Temperature 46 °F 69 °F 86 °F (2016)
Min Temperature 42 °F 47 °F 28 °F (1980)
Degree Days  
Heating Degree Days 21    
Moisture  
Dew Point 42 °F    
Average Humidity 90    
Maximum Humidity 93    
Minimum Humidity 87    
Precipitation  
Precipitation 0.00 in - - ()
Sea Level Pressure  
Sea Level Pressure 30.08 in    
Wind  
Wind Speed 11 mph (North)    
Max Wind Speed 15 mph    
Max Gust Speed 20 mph    
Visibility 7 miles    
Events Rain    
Averages and records for this station are not official NWS values.
T = Trace of Precipitation, MM = Missing Value Source: NWS Daily Summary

Daily Weather History Graph

Daily Weather History Graph

Search for Another Location

Airport or City:

Astronomy

Oct. 29, 2019 Rise Set
Actual Time 7:42 AM CDT 6:35 PM CDT
Civil Twilight 7:16 AM CDT 7:01 PM CDT
Nautical Twilight 6:47 AM CDT 7:30 PM CDT
Astronomical Twilight 6:17 AM CDT 8:00 PM CDT
Moon 9:14 AM CDT (10/29) 8:04 PM CDT (10/29)
Length of Visible Light 11h 45m
Length of Day
10h 53m
Waxing Crescent, 3% of the Moon is Illuminated
Oct 29
Waxing Crescent
Nov 4
First Quarter
Nov 12
Full
Nov 19
Last Quarter
Nov 26
New

Hourly Weather History & Observations

Time (CDT) Temp. Windchill Dew Point Humidity Pressure Visibility Wind Dir Wind Speed Gust Speed Precip Events Conditions
12:17 AM 46.4 °F 40.1 °F 42.8 °F 87% 30.12 in 10.0 mi NNW 15.0 mph - N/A   Overcast
12:57 AM 46.4 °F 41.5 °F 42.8 °F 87% 30.13 in 10.0 mi NW 10.4 mph - N/A   Overcast
1:17 AM 46.4 °F 41.5 °F 42.8 °F 87% 30.13 in 10.0 mi NNW 10.4 mph - N/A   Overcast
1:37 AM 46.4 °F 42.4 °F 42.8 °F 87% 30.12 in 10.0 mi NNW 8.1 mph - N/A Rain Light Rain
2:37 AM 44.6 °F 40.2 °F 41.0 °F 87% 30.12 in 7.0 mi NW 8.1 mph - N/A Rain Light Rain
2:58 AM 44.6 °F 40.2 °F 41.0 °F 87% 30.11 in 10.0 mi NNE 8.1 mph - N/A   Drizzle
3:17 AM 44.6 °F 39.2 °F 41.0 °F 87% 30.12 in 10.0 mi NNW 10.4 mph - N/A   Overcast
3:37 AM 44.6 °F 38.4 °F 41.0 °F 87% 30.11 in 10.0 mi NNW 12.7 mph - N/A Rain Light Rain
3:59 AM 44.6 °F 40.2 °F 41.0 °F 87% 30.14 in 3.0 mi NNW 8.1 mph - N/A Rain Heavy Rain
4:17 AM 44.6 °F 40.2 °F 41.0 °F 87% 30.13 in 10.0 mi NNW 8.1 mph - N/A   Overcast
4:37 AM 44.6 °F 40.2 °F 41.0 °F 87% 30.14 in 10.0 mi NNW 8.1 mph - N/A   Drizzle
4:59 AM 42.8 °F 36.2 °F 39.2 °F 87% 30.14 in 7.0 mi NNW 12.7 mph 17.3 mph N/A   Light Drizzle
5:39 AM 42.8 °F 36.2 °F 39.2 °F 87% 30.13 in 7.0 mi NW 12.7 mph 18.4 mph N/A   Overcast
5:57 AM 42.8 °F 37.5 °F 39.2 °F 87% 30.13 in 7.0 mi NNE 9.2 mph - N/A Rain Light Rain
6:19 AM 42.8 °F 37.0 °F 39.2 °F 87% 30.13 in 10.0 mi North 10.4 mph - N/A   Overcast
6:38 AM 42.8 °F 38.6 °F 39.2 °F 87% 30.14 in 10.0 mi NNW 6.9 mph - N/A   Overcast
6:57 AM 42.8 °F 35.8 °F 39.2 °F 87% 30.12 in 10.0 mi North 13.8 mph 19.6 mph N/A   Overcast
7:38 AM 42.8 °F 36.2 °F 39.2 °F 87% 30.12 in 10.0 mi North 12.7 mph - N/A   Overcast
7:57 AM 42.8 °F 36.6 °F 39.2 °F 87% 30.12 in 10.0 mi NNE 11.5 mph - N/A   Overcast
8:17 AM 42.8 °F 37.5 °F 39.2 °F 87% 30.12 in 10.0 mi North 9.2 mph - N/A   Overcast
8:37 AM 42.8 °F 37.5 °F 39.2 °F 87% 30.13 in 7.0 mi North 9.2 mph - N/A   Overcast
8:59 AM 42.8 °F 35.8 °F 39.2 °F 87% 30.12 in 5.0 mi NNE 13.8 mph - N/A   Overcast
9:17 AM 42.8 °F 36.2 °F 39.2 °F 87% 30.12 in 5.0 mi North 12.7 mph - N/A   Overcast
9:38 AM 42.8 °F 36.2 °F 39.2 °F 87% 30.13 in 7.0 mi NNE 12.7 mph - N/A   Overcast
9:58 AM 42.8 °F 36.6 °F 39.2 °F 87% 30.12 in 4.0 mi NNE 11.5 mph - N/A   Overcast
10:38 AM 42.8 °F 36.6 °F 41.0 °F 93% 30.12 in 2.5 mi North 11.5 mph - N/A   Overcast
11:19 AM 44.6 °F 39.2 °F 42.8 °F 93% 30.13 in 2.5 mi NW 10.4 mph - N/A   Overcast
11:37 AM 44.6 °F 39.7 °F 42.8 °F 93% 30.12 in 1.5 mi North 9.2 mph - N/A   Overcast
11:58 AM 44.6 °F 38.4 °F 42.8 °F 93% 30.11 in 1.8 mi NNE 12.7 mph - N/A   Overcast
12:17 PM 44.6 °F 38.4 °F 42.8 °F 93% 30.10 in 2.0 mi North 12.7 mph - N/A   Overcast
12:37 PM 44.6 °F 38.8 °F 42.8 °F 93% 30.10 in 2.0 mi North 11.5 mph 18.4 mph N/A   Overcast
12:59 PM 44.6 °F 39.2 °F 42.8 °F 93% 30.09 in 2.0 mi NNE 10.4 mph - N/A   Light Drizzle
1:39 PM 44.6 °F 39.2 °F 42.8 °F 93% 30.07 in 1.8 mi North 10.4 mph - N/A   Drizzle
1:58 PM 44.6 °F 39.7 °F 42.8 °F 93% 30.06 in 2.0 mi NNW 9.2 mph - N/A   Drizzle
2:38 PM 44.6 °F 38.8 °F 42.8 °F 93% 30.03 in 2.0 mi NNW 11.5 mph - N/A   Light Drizzle
2:58 PM 44.6 °F 39.7 °F 42.8 °F 93% 30.03 in 2.0 mi NNW 9.2 mph 16.1 mph N/A Rain Heavy Rain
3:17 PM 44.6 °F 40.2 °F 42.8 °F 93% 30.04 in 3.0 mi NNW 8.1 mph - N/A   Unknown
3:38 PM 44.6 °F 40.7 °F 42.8 °F 93% 30.05 in 1.2 mi NNW 6.9 mph - N/A Rain Rain
4:17 PM 44.6 °F 39.7 °F 42.8 °F 93% 30.02 in 10.0 mi North 9.2 mph 16.1 mph N/A Rain Light Rain
4:37 PM 44.6 °F 40.2 °F 42.8 °F 93% 30.02 in 7.0 mi North 8.1 mph 17.3 mph N/A Rain Heavy Rain
4:57 PM 44.6 °F 40.2 °F 42.8 °F 93% 30.03 in 10.0 mi NNW 8.1 mph 17.3 mph N/A Rain Light Rain
5:18 PM 44.6 °F 38.4 °F 42.8 °F 93% 30.02 in 10.0 mi North 12.7 mph 16.1 mph N/A   Overcast
5:37 PM 44.6 °F 39.2 °F 42.8 °F 93% 30.03 in 10.0 mi NNW 10.4 mph - N/A   Overcast
5:58 PM 44.6 °F 38.8 °F 42.8 °F 93% 30.01 in 10.0 mi NNE 11.5 mph 17.3 mph N/A   Overcast
6:17 PM 44.6 °F 38.8 °F 42.8 °F 93% 30.03 in 10.0 mi NNW 11.5 mph 16.1 mph N/A   Overcast
6:37 PM 44.6 °F 40.7 °F 42.8 °F 93% 30.03 in 10.0 mi North 6.9 mph - N/A   Overcast
6:57 PM 44.6 °F 41.4 °F 42.8 °F 93% 30.03 in 10.0 mi NNW 5.8 mph - N/A   Drizzle
7:38 PM 44.6 °F 38.8 °F 42.8 °F 93% 30.02 in 4.0 mi NNW 11.5 mph 16.1 mph N/A   Overcast
7:57 PM 44.6 °F 39.2 °F 42.8 °F 93% 30.02 in 3.0 mi North 10.4 mph - N/A Rain Light Rain
8:18 PM 44.6 °F 39.2 °F 42.8 °F 93% 30.02 in 3.0 mi NNE 10.4 mph 18.4 mph N/A   Light Drizzle
8:37 PM 44.6 °F 38.8 °F 42.8 °F 93% 30.01 in 4.0 mi NNE 11.5 mph - N/A Rain Light Rain
8:58 PM 44.6 °F 40.2 °F 42.8 °F 93% 30.00 in 4.0 mi North 8.1 mph - N/A Rain Rain
9:57 PM 44.6 °F 39.7 °F 42.8 °F 93% 30.03 in 7.0 mi NNW 9.2 mph - N/A Rain Rain
10:20 PM 44.6 °F 38.8 °F 42.8 °F 93% 30.03 in 10.0 mi NW 11.5 mph - N/A Rain Rain
10:37 PM 44.6 °F 39.2 °F 42.8 °F 93% 30.04 in 10.0 mi NNW 10.4 mph - N/A Rain Light Rain
10:58 PM 44.6 °F 39.2 °F 42.8 °F 93% 30.05 in 7.0 mi NNW 10.4 mph - N/A Rain Rain